Date String (YYYY-MM-DD hh:mm:ss) UTC,Instrument flags,Ambient pressure (hPa),Sample flow (lpm),Bypass flow (lpm),Sample temperature (°C),Ambient temperature (°C),ASC tube jacket temperature (°C),LED temperature (°C),Box temperature (°C),Sample RH (%),Span deviation,Mass concentration (μg/m³),Mass concentration (μg/m³),Mass concentration (μg/m³)
DateTimeUTC,F1_M11,P_M11,Q1_M11,Q2_M11,T1_M11,T2_M11,T3_M11,T4_M11,T5_M11,U1_M11,ZSPAN_M11,X0_M11,X2_M11,X1_M11
2022-12-03 05:00:00,,0830.3,4.99,0.00,20.9,20.7,00.0,29.7,22.6,07.9,0000.0,0008.07,0002.25,0001.34
2022-12-03 05:01:00,,0830.2,5.01,0.00,20.8,20.1,00.0,29.7,22.4,07.9,0000.0,0008.03,0002.28,0001.34
2022-12-03 05:02:00,,0830.1,5.00,0.00,20.8,19.5,00.0,29.7,22.2,07.9,0000.0,0008.44,0002.29,0001.35
2022-12-03 05:03:00,,0830.1,4.99,0.00,20.7,19.2,00.0,29.7,22.1,07.9,0000.0,0009.66,0002.31,0001.35
2022-12-03 05:04:00,,0830.2,5.00,0.00,20.7,18.8,00.0,29.7,22.0,07.9,0000.0,0009.62,0002.22,0001.36
2022-12-03 05:05:00,,0830.3,5.01,0.00,20.6,18.8,00.0,29.7,22.0,07.9,0000.0,0009.13,0002.22,0001.36
2022-12-03 05:06:00,,0830.3,5.01,0.00,20.7,20.1,00.0,29.6,22.3,08.0,0000.0,0008.92,0002.33,0001.37
2022-12-03 05:07:00,,0830.4,5.00,0.00,20.8,21.3,00.0,29.6,22.7,07.9,0000.0,0008.96,0002.42,0001.38
2022-12-03 05:08:00,,0830.4,4.99,0.00,21.0,21.6,00.0,29.6,22.9,07.9,0000.0,0008.80,0002.42,0001.40
2022-12-03 05:09:00,,0830.3,4.99,0.00,21.0,20.9,00.0,29.7,22.8,07.8,0000.0,0008.87,0002.45,0001.40
2022-12-03 05:10:00,,0830.3,5.01,0.00,20.9,20.3,00.0,29.8,22.6,07.7,0000.0,0008.69,0002.46,0001.42
2022-12-03 05:11:00,,0830.2,5.00,0.00,20.9,19.7,00.0,29.8,22.4,07.7,0000.0,0008.54,0002.41,0001.42
2022-12-03 05:12:00,,0830.3,5.02,0.00,20.8,19.3,00.0,29.8,22.3,07.8,0000.0,0008.66,0002.42,0001.42
2022-12-03 05:13:00,,0830.4,4.98,0.00,20.8,19.0,00.0,29.8,22.2,07.8,0000.0,0008.12,0002.38,0001.41
2022-12-03 05:14:00,,0830.4,5.02,0.00,20.7,18.6,00.0,29.8,22.0,07.8,0000.0,0007.21,0002.37,0001.40
2022-12-03 05:15:00,,0830.4,5.00,0.00,20.6,18.6,00.0,29.7,22.0,07.9,0000.0,0007.26,0002.39,0001.40
2022-12-03 05:16:00,,0830.5,5.01,0.00,20.7,19.8,00.0,29.6,22.3,07.9,0000.0,0007.37,0002.42,0001.42
2022-12-03 05:17:00,,0830.4,5.00,0.00,20.8,21.1,00.0,29.6,22.7,07.9,0000.0,0007.83,0002.36,0001.42
2022-12-03 05:18:00,,0830.3,5.00,0.00,21.0,21.7,00.0,29.7,22.9,07.8,0000.0,0007.57,0002.30,0001.43
2022-12-03 05:19:00,,0830.3,4.99,0.00,21.0,21.0,00.0,29.7,22.8,07.7,0000.0,0007.45,0002.27,0001.41
2022-12-03 05:20:00,,0830.3,4.98,0.00,21.0,20.3,00.0,29.8,22.6,07.7,0000.0,0007.64,0002.26,0001.42
2022-12-03 05:21:00,,0830.4,5.02,0.00,20.9,19.6,00.0,29.8,22.4,07.8,0000.0,0007.78,0002.23,0001.43
2022-12-03 05:22:00,,0830.4,4.99,0.00,20.8,19.1,00.0,29.8,22.2,07.8,0000.0,0007.80,0002.24,0001.43
2022-12-03 05:23:00,,0830.2,5.00,0.00,20.7,18.6,00.0,29.8,22.1,07.8,0000.0,0007.65,0002.26,0001.45
2022-12-03 05:24:00,,0830.2,5.01,0.00,20.6,18.3,00.0,29.8,21.9,07.8,0000.0,0007.74,0002.29,0001.49
2022-12-03 05:25:00,,0830.3,5.01,0.00,20.6,18.7,00.0,29.7,22.0,07.9,0000.0,0007.52,0002.31,0001.52
2022-12-03 05:26:00,,0830.4,5.00,0.00,20.7,20.2,00.0,29.6,22.4,07.9,0000.0,0007.23,0002.32,0001.53
2022-12-03 05:27:00,,0830.4,5.00,0.00,20.8,21.4,00.0,29.6,22.7,07.8,0000.0,0007.51,0002.28,0001.54
2022-12-03 05:28:00,,0830.4,4.99,0.00,21.0,21.2,00.0,29.7,22.8,07.7,0000.0,0006.58,0002.27,0001.57
2022-12-03 05:29:00,,0830.4,4.99,0.00,20.9,20.4,00.0,29.7,22.5,07.8,0000.0,0006.08,0002.28,0001.57
2022-12-03 05:30:00,,0830.2,5.00,0.00,20.9,19.7,00.0,29.8,22.4,07.8,0000.0,0006.13,0002.30,0001.59
2022-12-03 05:31:00,,0830.4,5.02,0.00,20.8,19.2,00.0,29.8,22.2,07.7,0000.0,0006.20,0002.35,0001.61
2022-12-03 05:32:00,,0830.5,4.99,0.00,20.7,18.7,00.0,29.8,22.0,07.8,0000.0,0005.91,0002.38,0001.61
2022-12-03 05:33:00,,0830.5,4.99,0.00,20.6,18.3,00.0,29.7,21.9,07.7,0000.0,0007.29,0002.41,0001.63
2022-12-03 05:34:00,,0830.4,5.01,0.00,20.5,18.6,00.0,29.7,21.9,07.8,0000.0,0008.13,0002.42,0001.64
2022-12-03 05:35:00,,0830.3,5.00,0.00,20.6,20.1,00.0,29.6,22.3,07.8,0000.0,0008.81,0002.51,0001.64
2022-12-03 05:36:00,,0830.3,5.00,0.00,20.8,21.3,00.0,29.5,22.6,07.8,0000.0,0008.90,0002.55,0001.65
2022-12-03 05:37:00,,0830.4,4.99,0.00,20.9,21.3,00.0,29.6,22.7,07.7,0000.0,0008.92,0002.58,0001.66
2022-12-03 05:38:00,,0830.5,5.00,0.00,20.9,20.5,00.0,29.7,22.6,07.8,0000.0,0008.78,0002.60,0001.69
2022-12-03 05:39:00,,0830.5,5.00,0.00,20.8,19.8,00.0,29.7,22.5,07.8,0000.0,0008.79,0002.59,0001.69
2022-12-03 05:40:00,,0830.4,5.01,0.00,20.8,19.3,00.0,29.7,22.3,07.9,0000.0,0008.77,0002.57,0001.70
2022-12-03 05:41:00,,0830.5,5.00,0.00,20.7,18.9,00.0,29.7,22.2,07.8,0000.0,0008.81,0002.60,0001.72
2022-12-03 05:42:00,,0830.6,4.99,0.00,20.7,18.6,00.0,29.7,22.1,07.8,0000.0,0008.61,0002.56,0001.73
2022-12-03 05:43:00,,0830.6,5.00,0.00,20.6,18.7,00.0,29.7,22.0,07.9,0000.0,0008.52,0002.54,0001.74
2022-12-03 05:44:00,,0830.6,5.02,0.00,20.7,20.1,00.0,29.6,22.4,07.9,0000.0,0008.11,0002.55,0001.74
2022-12-03 05:45:00,,0830.6,5.00,0.00,20.8,21.3,00.0,29.6,22.7,07.9,0000.0,0007.99,0002.58,0001.73
2022-12-03 05:46:00,,0830.6,5.00,0.00,20.9,21.4,00.0,29.6,22.8,07.8,0000.0,0007.00,0002.54,0001.73
2022-12-03 05:47:00,,0830.4,4.99,0.00,20.9,20.6,00.0,29.7,22.6,07.8,0000.0,0006.85,0002.50,0001.74
2022-12-03 05:48:00,,0830.4,5.00,0.00,20.8,19.8,00.0,29.7,22.4,07.8,0000.0,0008.19,0002.45,0001.72
2022-12-03 05:49:00,,0830.4,5.00,0.00,20.8,19.3,00.0,29.7,22.2,07.8,0000.0,0008.61,0002.50,0001.72
2022-12-03 05:50:00,,0830.6,5.00,0.00,20.7,18.8,00.0,29.7,22.1,07.8,0000.0,0009.30,0002.53,0001.73
2022-12-03 05:51:00,,0830.6,5.00,0.00,20.6,18.4,00.0,29.7,21.9,07.8,0000.0,0009.83,0002.59,0001.73
2022-12-03 05:52:00,,0830.4,5.02,0.00,20.6,18.5,00.0,29.7,21.9,07.9,0000.0,0010.43,0002.63,0001.72
2022-12-03 05:53:00,,0830.4,5.00,0.00,20.6,19.9,00.0,29.6,22.2,07.9,0000.0,0010.38,0002.61,0001.71
2022-12-03 05:54:00,,0830.6,5.00,0.00,20.8,21.2,00.0,29.5,22.6,07.9,0000.0,0011.15,0002.62,0001.73
2022-12-03 05:55:00,,0830.6,4.99,0.00,20.9,21.4,00.0,29.6,22.8,07.8,0000.0,0012.17,0002.66,0001.72
2022-12-03 05:56:00,,0830.6,4.99,0.00,20.9,20.7,00.0,29.7,22.6,07.8,0000.0,0011.96,0002.67,0001.74
2022-12-03 05:57:00,,0830.6,5.00,0.00,20.8,20.0,00.0,29.7,22.4,07.8,0000.0,0012.11,0002.64,0001.75
2022-12-03 05:58:00,,0830.6,5.00,0.00,20.7,19.4,00.0,29.7,22.2,07.8,0000.0,0012.50,0002.64,0001.73
2022-12-03 05:59:00,,0830.6,5.00,0.00,20.7,18.9,00.0,29.7,22.1,07.8,0000.0,0011.96,0002.67,0001.74
